Regional Weather Roundup
Issued by NWS Newport/Morehead, NC

Current Version | Previous Version | Text Only | Print | Product List | Glossary On
Versions: 1 2 3 4 5 6 7 8 9 10 11 12 13 14 15 16 17 18 19 20 21 22 23 24 25 26 27 28 29 30 31 32 33 34 35 36 37 38 39 40 41 42 43 44 45 46 47 48 49 50
000
ASUS42 KMHX 191213
RWRMHX
WEATHER ROUNDUP FOR EASTERN NORTH CAROLINA
NATIONAL WEATHER SERVICE NEWPORT/MOREHEAD CITY NC
800 AM EDT THU APR 19 2018

NOTE: "FAIR" INDICATES FEW OR NO CLOUDS BELOW 12,000 FEET
WITH NO SIGNIFICANT WEATHER AND/OR OBSTRUCTIONS TO VISIBILITY

NCZ015>017-031-032-045>047-102-103-191300-
NORTH COAST

CITY           SKY/WX    TMP DP  RH WIND       PRES   REMARKS
EDENTON        FAIR      69  55  62 SW10G17   29.72R
ELIZABETH CITY FAIR      68  56  65 SW16      29.69R
KITTY HAWK     FAIR      65  54  65 SW7       29.70S
MANTEO         FAIR      65  55  68 SW13      29.72S

$$

NCZ045>047-081-094-103-104-191300-
CENTRAL COAST

CITY           SKY/WX    TMP DP  RH WIND       PRES   REMARKS
FRISCO         FAIR      67  58  72 SW20G30   29.77R

$$

NCZ095-097-098-100-101-191300-
SOUTHERN COAST

CITY           SKY/WX    TMP DP  RH WIND       PRES   REMARKS
BEAUFORT       FAIR      65  56  72 SW20G28   29.80R
CEDAR ISLAND   NOT AVBL
JACKSONVILLE   FAIR      68  53  58 SW13G21   29.78R
PINEY ISLAND   NOT AVBL
WILMINGTON     FAIR      66  53  63 SW12      29.82R


$$

NCZ011>013-027>030-043-044-078>080-089-090>093-098-191300-
COASTAL PLAIN

CITY           SKY/WX    TMP DP  RH WIND       PRES   REMARKS
AHOSKIE        FAIR      66  53  63 CALM      29.71R
CLINTON        FAIR      67  55  64 SW10      29.78R
ELIZABETHTOWN  FAIR      67  53  61 MISG      29.81R
GOLDSBORO      FAIR      68  52  56 SW12      29.74R
GREENVILLE     FAIR      68  52  56 SW13      29.76S
HAVELOCK       SUNNY     67  57  70 SW17G23   29.79R
KENANSVILLE    FAIR      68  54  60 SW9       29.78R
KINSTON        FAIR      70  52  52 SW12G17   29.77R
NEW BERN       FAIR      68  52  56 SW12      29.78R
RICHLANDS      FAIR      67  53  61 SW10      29.79R
ROCKY MOUNT    FAIR      68  53  58 SW8       29.73R
WASHINGTON     FAIR      66  52  59 SW6       29.75R
WHITEVILLE     FAIR      67  53  59 SW13G18   29.82R

$$

AMZ130-135-150-152-154-156-158-170-250-252-270-ANZ085-086-088-633-658-670-191300-
MARINE OBSERVATIONS

STATION/POSITION TIME  TEMP    WIND        PRES    WAVE   SWELL
                       AIR SEA DIR/SP/G            HT/PER HT/PER
                 (UTC) (F)     (DEG/KT/KT) (MB)    (FT/S) (FT/S)
CHESAPEAKE LIGHT NOT AVBL
64 E VA BEACH    1150   56 49  220/ 17/ 21 1004.8    6/ 6   2/ 8
DUCK             1142   67 48  230/ 16/ 20 1005.1
2 E DUCK         1200      48                N/A     2/15   2/15
OREGON INLET     1142   63 62  210/ 19/ 22 1006.4
13E OREGON INLT  1148      52                N/A     5/ 8   3/ 8
HATTERAS CG      1142   66 62  230/ 16/ 22 1007.9
DIAMOND BUOY     1200   70 69  230/ 27/ 31 1008.8
CAPE LOOKOUT     1200          220/ 15/ 21 1009.5
BEAUFORT LAB     1142   65 62  230/  7/ 13 1009.3
30 SE NEW RVR IN 1108   68 65  220/ 19/ 25 1009.7
30 SE NEW RVR IN 1200      65                N/A     8/ 7
27 SE WRIGHTSVLE 1108   66 65  230/ 23/ 33 1010.3
5 SE WRIGHTSVLE  1108   63 60  230/ 16/ 21 1009.4
225 S CAPE HAT   1200   71 72  230/ 21/ 27 1016.8
41 SE CHARLESTON 1150   67 67  240/ 21/ 25 1014.2    6/ 6   2/ 9

$$




USA.gov is the U.S. government's official web portal to all federal, state and local government web resources and services.